Location: Lake Lucerne
(45.5315°N, 88.8489°W)
Time: 19:37:07
(UTC-05:00)

ARIANE 6 FM1 Upper Stage - Pass Details

Date: 22 September 2024
Orbit: 563 x 594 km, 62.0° (Epoch: 09 October)

Event Time Altitude Azimuth Distance (km) Brightness Sun altitude
Exits shadow 04:12:34 32° 133° (SE) 1,033 4.1 -26.0°
Drops below altitude 10° 04:14:57 10° 137° (SE) 1,928 5.5 -25.7°
Sets 04:17:12 0° 138° (SE) 2,826 6.4 -25.3°
